Weather Roundup
Issued by NWS

Home | Current Version | Previous Version | Graphics & Text | Print | Product List | Glossary Off
Versions: 1 2 3 4 5 6 7 8 9 10 11 12 13 14 15 16 17 18 19 20 21 22 23 24 25 26 27 28 29 30 31 32 33 34 35 36 37 38 39 40 41 42 43 44 45 46 47 48 49 50

424
NZUS93 KARX 260759
HRRWXR

CURRENT HOURLY OBSERVATIONS ACROSS
MUCH OF THE UPPER MISSISSIPPI VALLEY
NATIONAL WEATHER SERVICE LA CROSSE WI
300 AM CDT THU MAY 26 2016


...SOUTHEAST MINNESOTA...


CITY           SKY/WX    TMP DP  RH WIND       PRES   REMARKS
ROCHESTER      PTCLDY    63  61  93 S5        29.80F
ROCHESTER/MAYO FAIR      65  64  96 SE6       29.80F
WINONA         PTCLDY    63  61  94 CALM      29.80F FOG
AUSTIN         MOCLDY    64  61  88 SW5       29.79F
ALBERT LEA     TSTM      61  59  94 NW18G35   29.84R
DODGE CENTER   CLOUDY    66  61  82 S13       29.80F
PRESTON        CLEAR     63  59  86 S3        29.81F
OWATONNA       TSTM      64  57  77 W43G48    29.90R
FARIBAULT      NOT AVBL
$$

...ELSEWHERE IN MINNESOTA...


CITY           SKY/WX    TMP DP  RH WIND       PRES   REMARKS
MINNEAPOLIS    TSTM      67  63  87 S22G32    29.79S FOG
INTNL FALLS    MOCLDY    56  50  80 SE7       29.78S
DULUTH         FOG       44  43  96 SE7       29.83R VSB 1/4
RED WING       MOCLDY    64  63  94 E5        29.78S
REDWOOD FALLS  CLOUDY    63  55  75 E6        29.79R
MANKATO        CLOUDY    61  55  82 W9        29.86R
WORTHINGTON    CLOUDY    61  53  75 S9        29.80S
FAIRMONT       CLOUDY    63  45  51 N12       29.77F
$$

...SOUTHWEST WISCONSIN...


CITY           SKY/WX    TMP DP  RH WIND       PRES   REMARKS
LA CROSSE      CLEAR     64  62  93 E3        29.80F
PRAIRIE DU CHI CLOUDY    63  59  88 CALM      29.81F
BOSCOBEL       FOG       59  58  96 CALM      29.82F VSB 1/4
LONE ROCK      NOT AVBL
PLATTEVILLE    CLOUDY    67  59  76 SE6       29.86F
FORT MC COY    PTCLDY    55  55 100 CALM      29.83F
CAMP DOUGLAS   FOG       61 N/A N/A CALM      29.83F VSB 1/4
MAUSTON-NEW LI FOG       59  59 100 CALM      29.82F VSB 3/4
VIROQUA        FAIR      67  60  77 S5        29.84F
WIS DELLS      FOG       63  62  95 CALM      29.84F VSB 1/4
$$

...ELSEWHERE IN WISCONSIN...


CITY           SKY/WX    TMP DP  RH WIND       PRES   REMARKS
MILWAUKEE      PTCLDY    62  61  96 SE5       29.89F
MADISON        PTCLDY    66  63  90 S6        29.85F
GREEN BAY      CLEAR     60  59  96 S9        29.83F FOG
EAU CLAIRE     FOG       57  57 100 CALM      29.79S VSB 1/2
BLACK RVR FLS  FOG       56  56 100 CALM      29.82S VSB<1/4
MEDFORD        FOG       61  61 100 S7        29.83F VSB 1/4
WAUSAU         FOG       63  32  31 SW6       29.82S VSB 1/2
WIS RAPIDS     FOG       62  60  93 SW5       29.84F VSB 1/4
MARSHFIELD     FOG       63  61  93 SW6       29.82F VSB 1/4
RICE LAKE      CLOUDY    58  57  96 E3        29.81F
$$

...NORTHEAST IOWA...


CITY           SKY/WX    TMP DP  RH WIND       PRES   REMARKS
WATERLOO       CLOUDY    69  60  73 S7        29.79F
DUBUQUE        PTCLDY    65  58  78 S5        29.85F
DECORAH        CLOUDY    66  61  82 S6        29.80F
MASON CITY     TSTM      58  55  90 NW25G36   29.87R VSB 1
CHARLES CITY   CLOUDY    68  63  83 S8        29.81F
OELWEIN        CLOUDY    66  61  82 S12       29.82F
$$

...ELSEWHERE IN IOWA...


CITY           SKY/WX    TMP DP  RH WIND       PRES   REMARKS
DES MOINES     CLOUDY    66  61  82 S8        29.82R THUNDER
IOWA CITY      CLOUDY    73  63  70 S8        29.85F
FORT DODGE     CLOUDY    59  52  77 NW12G21   29.84R THUNDER
MARSHALLTOWN   CLOUDY    68  63  84 SE6       29.80F
CEDAR RAPIDS   NOT AVBL
$$

...NORTHERN ILLINOIS...


CITY           SKY/WX    TMP DP  RH WIND       PRES   REMARKS
CHICAGO-OHARE  CLEAR     62  61  96 S3        29.91F
CHICAGO-MIDWAY CLEAR     68  63  84 S8        29.92S
MOLINE         CLOUDY    74  63  68 SW10      29.85F
ROCKFORD       MOCLDY    65  63  93 S6        29.91F
PEORIA         CLEAR     68  65  90 S7        29.91F
$$

NOTE: "FAIR" INDICATES FEW OR NO CLOUDS BELOW 12,000 FEET WITH NO
SIGNIFICANT WEATHER AND/OR OBSTRUCTIONS TO VISIBILITY. WIND
SPEEDS ARE IN MILES-PER-HOUR.




USA.gov is the U.S. government's official web portal to all federal, state and local government web resources and services.